Tracking 28790 objects as of 19-Apr-2024
HD Live streaming from Space Station
objects crossing your sky now

FENGYUN 1C DEB

Track FENGYUN 1C DEB now!
10-day predictions


NORAD ID: 36248
Int'l Code: 1999-025DVZ
Perigee: 781.1 km
Apogee: 1,067.8 km
Inclination: 98.2 °
Period: 103.4 minutes
Semi major axis: 7295 km
RCS: 0.0062 m2 (small)
Launch date: May 10, 1999
Source: People's Republic of China (PRC)
Launch site: Taiyaun Space Center, China (TSC)

Note: This is SATELLITE DEBRIS
Your satellite tracking list
Your tracking list is empty




NASA's NSSDC Master Catalog

Two Line Element Set (TLE):
1 36248U 99025DVZ 24101.78674947  .00003892  00000-0  25661-2 0  9992
2 36248  98.1587  41.5732 0196483 125.3191 236.6519 13.93239102535219
Source of the keplerian elements: AFSPC